TRANSIT 5B-1 DEB, 3166

Orbit data source: Space-Track

TRANSIT 5B-1 DEB, 3166 is space debris in LEO originally from a launch on Sat, 28 Sep 1963 UTC launched from the Air Force Western Test Range (AFWTR). Debris objects in space refer to the collection of defunct objects orbiting the Earth. Examples of debris include non-operational satellites, rocket bodies, and fragments generated from explosions, collisions, or faulty payload assembly.

Loading next visibility...
Identifier
3166, 1963-038H
Orbit
LEO
Country
Flag of USUS
Related business
Manufacturer
Unknown
Mission
Spacecraft
Bus & Motor
Unknown
Mass
Unknown
Launch date (UTC)
1963-09-28 (62 years ago)
Launch vehicle
Unknown
Launch site
Air Force Western Test Range (AFWTR)
Object type
Payload
Rocket body
Debris
Shape & HBR
Unknown shape, 0.2 m
Radar Cross Section
Medium (>0.1 m² and <1 m²)

Expand to show TLE details & history
Last TLE update: 8 hours ago

TLE from 8 hours ago
0 TRANSIT 5B-1 DEB
1  3166U 63038H   25311.07307859  .00000114  00000-0  17786-3 0  9995
2  3166  89.9707 333.7013 0039631 293.0355 120.5733 13.44934956561738
Epoch: 2025-11-07T01:45Z
TLE epoch observation values (Epoch: 2025-11-07T01:45:13.990Z)
Latitude
54.09243°
Longitude
-99.08902°
Altitude
1,115.067 km
Speed
7.293 km/s
True Right ascension
22h 14m 57s
True Declination
53° 56' 12"
Sunlit
Object was in daylight at epoch
Visualization orbit readout
Latitude
Unknown
Longitude
Unknown
Altitude
Unknown
Speed
Unknown
Apparent Right ascension
Unknown
Apparent Declination
Unknown
Sunlit
N/A
Visualization observer readout
Local Sidereal Time
06:18:24
Azimuth
Unknown
Elevation
Unknown
Doppler factor
Unknown
Orbital elements
Apogee altitude
1,117.599 km
Perigee altitude
1,058.42 km
Semi-major axis
7,466.146 km
Eccentricity
0.00396
Inclination
89.9707°
RAAN
333.7013°
Arg. of periapsis
293.0355°
True anomaly
120.96332°
Mean anomaly
120.5733°
Eccentric anomaly
120.76841°
Mean motion
3.36433 °/min
Orbital period
107.01 mins
BSTAR
0.00017786
Loading maneuver chart data...
Computing Atmospheric mass density...

Documentation

Showing up to 5 results
|